Regional Weather Roundup
Issued by NWS

Home | Current Version | Previous Version | Graphics & Text | Print | Product List | Glossary On
Versions: 1 2 3 4 5 6 7 8 9 10 11 12 13 14 15 16 17 18 19 20 21 22 23 24 25 26 27 28 29 30 31 32 33 34 35 36 37 38 39 40 41 42 43 44 45 46 47 48 49 50
000
ASUS43 KMKX 100700
RWRWI

WISCONSIN REGIONAL WEATHER ROUNDUP
NATIONAL WEATHER SERVICE MILWAUKEE/SULLIVAN WI
100 AM CST SAT DEC 10 2016

NOTE: "FAIR" INDICATES FEW OR NO CLOUDS BELOW 12,000 FEET WITH NO
SIGNIFICANT WEATHER AND/OR OBSTRUCTIONS TO VISIBILITY.

WIZ001-002-006>008-014>016-023>028-100800-
NORTHWEST WISCONSIN

CITY           SKY/WX    TMP DP  RH WIND       PRES   REMARKS
SUPERIOR ARPT  CLOUDY     9  -2  60 W8        30.49S WCI  -3
ASHLAND        LGT SNOW   9   4  80 W7        30.46S WCI  -2
HAYWARD        CLOUDY     9  -2  61 VRB5      30.43S WCI   1
SIREN          CLOUDY    11   3  70 CALM      30.45F
CUMBERLAND     CLOUDY    10   1  67 W7        30.42S WCI   0
RICE LAKE      CLOUDY    12   1  60 W9        30.45F WCI   0
CHETEK         LGT SNOW  11   6  80 W3        30.45S
LADYSMITH      LGT SNOW  13   8  81 NW9       30.43S WCI   1
EAU CLAIRE     NOT AVBL
MENOMONIE      FLURRIES  14   6  70 W7        30.46F WCI   4
NEW RICHMOND   CLOUDY    11   4  74 W7        30.47S WCI   0
OSCEOLA        CLOUDY    11   5  74 W7        30.51S WCI   1
$$

WIZ003>005-009-010-017-018-100800-
NORTH CENTRAL WISCONSIN

CITY           SKY/WX    TMP DP  RH WIND       PRES   REMARKS
MANITOWISH WTR CLOUDY     7  -1  71 NW8       30.35S WCI  -6
ARBOR VITAE    CLOUDY    11   4  73 NW7       30.35R WCI   1
WOODRUFF       CLOUDY    11   4  73 NW7       30.35R WCI   1
RHINELANDER    CLOUDY    11   4  73 NW7       30.34S WCI   0
EAGLE RIVER    CLOUDY     9   0  68 NW9       30.34S WCI  -5
LAND O LAKES   CLOUDY     8   0  67 W5        30.36S WCI   0
PHILLIPS       CLOUDY     9   3  78 NW6       30.37S WCI  -1
TOMAHAWK       LGT SNOW  11   7  83 W3        30.37R
MEDFORD        CLOUDY    11   3  69 W7        30.37S WCI   1
MERRILL        CLOUDY    14   7  73 NW6       30.38S WCI   5
$$

WIZ029-030-035-036-043>047-100800-
CENTRAL WISCONSIN

CITY           SKY/WX    TMP DP  RH WIND       PRES   REMARKS
WAUSAU         CLOUDY    14   8  77 W8        30.38S WCI   3
MOSINEE        CLOUDY    14  10  85 W8        30.40S WCI   3
MARSHFIELD     FLURRIES  14   8  77 W9        30.39S WCI   2
STEVENS POINT  CLOUDY    14   8  76 CALM      30.41S
WAUPACA        MOCLDY    19   8  63 CALM      30.43S
WAUTOMA        CLOUDY    14   9  80 W7        30.45S WCI   4
WISC RAPIDS    CLOUDY    15  10  80 W7        30.43F WCI   5
CAMP DOUGLAS   PTCLDY    14   9  79 W6        30.45F WCI   5
$$

WIZ011>013-019>022-031-037>040-048>050-100800-
NORTHEAST WISCONSIN

CITY           SKY/WX    TMP DP  RH WIND       PRES   REMARKS
ANTIGO         FLURRIES  13   8  81 W9        30.34S WCI   1
SHAWANO        MOCLDY    18   8  64 W7        30.42R WCI   9
OCONTO         CLOUDY    18   8  64 W9        30.41S WCI   7
STURGEON BAY   FLURRIES  20   9  62 W8        30.40S WCI  10
GREEN BAY      CLOUDY    20  10  65 W8        30.43R WCI  10
MANITOWOC      NOT AVBL
APPLETON       CLOUDY    18  10  73 W7        30.40S WCI   8
CLINTONVILLE   FLURRIES  19  10  68 W9        30.41S WCI   9
OSHKOSH        CLEAR     16   9  74 W5        30.43S WCI   9
$$

WIZ032>034-041-042-053>061-100800-
SOUTHWEST WISCONSIN

CITY           SKY/WX    TMP DP  RH WIND       PRES   REMARKS
LA CROSSE      CLOUDY    16  10  77 NW9       30.49F WCI   4
SPARTA         CLOUDY    16  10  78 W8        30.47F WCI   5
VIROQUA        CLOUDY    13  10  85 W5        30.44S WCI   5
BOSCOBEL       CLOUDY    18  13  80 CALM      30.50F
PRAIRIE DU CHI LGT SNOW  18  13  80 W5        30.51F WCI  11
PLATTEVILLE    PTCLDY    17  15  91 W5        30.48F WCI  10
$$

WIZ056-057-062-063-064-067-068-100800-
SOUTH CENTRAL WISCONSIN

CITY           SKY/WX    TMP DP  RH WIND       PRES   REMARKS
REEDSBURG      MOCLDY    16  11  80 W7        30.46S WCI   6
BARABOO/DELLS  CLOUDY    16  10  77 W7        30.45S WCI   7
LONE ROCK      NOT AVBL
MINERAL POINT  FLURRIES  18  16  93 W7        30.46S WCI   8
MADISON        CLOUDY    18  10  71 W7        30.46S WCI   9
MIDDLETON      MOCLDY    19  13  79 W7        30.47S WCI  10
WATERTOWN      CLOUDY    18  13  80 W5        30.46R WCI  11
MONROE         CLOUDY    18  14  86 W8        30.46S WCI   7
JANESVILLE     CLOUDY    19  14  79 W6        30.48S WCI  11
$$

WIZ051-052-058>065-066-070>072-100800-
SOUTHEAST WISCONSIN

CITY           SKY/WX    TMP DP  RH WIND       PRES   REMARKS
MILWAUKEE      CLOUDY    20  12  71 W8        30.47S WCI  10
WAUKESHA       CLOUDY    18  12  79 W7        30.46S WCI   8
MILWAUKEE/TIMM PTCLDY    19  12  73 W7        30.47R WCI  10
RACINE         CLOUDY    19  11  70 W7        30.49S WCI  10
BURLINGTON     CLOUDY    22  18  84 W7        30.47S WCI  14
KENOSHA        CLOUDY    19  13  77 W8        30.48S WCI   9
FOND DU LAC    MOCLDY    18   9  68 W7        30.45R WCI   9
SHEBOYGAN      MOCLDY    16  10  77 W7        30.44R WCI   6
WEST BEND      PTCLDY    19  12  73 W7        30.44R WCI  10
JUNEAU         CLOUDY    15  11  83 W5        30.46R WCI   7
$$

LSZ147-162-100800-
LAKE SUPERIOR

STATION/POSITION TIME  TEMP    WIND        PRES    WAVE
                       AIR SEA DIR/SP/G            HT/PER
                 (UTC) (F)     (DEG/KT/KT) (MB)    (FT/S)
DEVILS ISLAND    0600   10     270/ 11/ 15 1032.8S
PORT WING        0630   12     310/ 14/ 20 1031.5S
SAXON HARBOR     0640   11     220/  5/  8 1031.2S
$$

LMZ867-665-643>646-100800-
LAKE MICHIGAN

STATION/POSITION TIME  TEMP    WIND        PRES    WAVE
                       AIR SEA DIR/SP/G            HT/PER
                 (UTC) (F)     (DEG/KT/KT) (MB)    (FT/S)
CHAMBERS ISLAND  0640   19     260/  9/ 13 1028.8S
NORTHPORT PIER   0640   20     280/  9/ 17 1028.8F
SISTER BAY       0620   21     310/ 19/ 23   N/A
ALGOMA LAKESHORE 0621          260/  6/ 10   N/A
KEWAUNEE LAKESHO 0630   17     270/  5/  9 1029.6S
SHEBOYGAN LAKESH 0600   19     240/  8/ 10 1031.8F
PORT WASHINGTON  0640   20     270/  4/  6 1032.2S
KENOSHA   LAKESH 0600   19     250/  7/ 11 1031.8
$$

TC  - TEMPERATURE IN CELSIUS
VSB - VISIBILITY IN STATUTE MILES
WCI - WIND CHILL INDEX
HX  - HEAT INDEX





USA.gov is the U.S. government's official web portal to all federal, state and local government web resources and services.